Regional Weather Roundup
Issued by NWS

Home | Current Version | Previous Version | Graphics & Text | Print | Product List | Glossary On
Versions: 1 2 3 4 5 6 7 8 9 10 11 12 13 14 15 16 17 18 19 20 21 22 23 24 25 26 27 28 29 30 31 32 33 34 35 36 37 38 39 40 41 42 43 44 45 46 47 48 49 50
634
ASUS43 KOAX 211102
RWRNE

WEATHER ROUNDUP FOR NEBRASKA
NATIONAL WEATHER SERVICE OMAHA NE
600 AM CDT FRI JUL 21 2017

NOTES: SATELLITE DATA IS BEING USED TO AUGMENT CLOUD COVER ABOVE
       12000 FEET.
       "FAIR" INDICATES FEW OR NO CLOUDS BELOW 12,000 FEET WITH NO
       SIGNIFICANT WEATHER AND/OR OBSTRUCTIONS TO VISIBILITY.


NEZ001>004-019>022-054>056-211200-
NEBRASKA PANHANDLE

CITY           SKY/WX    TMP DP  RH WIND       PRES   REMARKS
SCOTTSBLUFF    PTCLDY    65  59  81 CALM      29.96S
ALLIANCE       PTCLDY    62  59  90 W7        29.94R
CHADRON        CLOUDY    67  61  81 N5        29.92S
GORDON         FAIR      69  66  89 CALM      29.92R
KIMBALL        CLOUDY    61  57  87 W7        30.05S
SIDNEY         PTCLDY    67  55  65 NW10      30.01R
$$

NEZ057>060-069>072-079>082-211200-
SOUTHWEST NEBRASKA

CITY           SKY/WX    TMP DP  RH WIND       PRES   REMARKS
NORTH PLATTE   PTCLDY    69  67  93 CALM      29.85S
IMPERIAL       CLEAR     72  66  81 NW3       29.91R
LEXINGTON      CLEAR     74  61  63 S9        29.84F
MCCOOK         CLEAR     72  60  66 SW10      29.86R
OGALLALA       PTCLDY    71  69  93 W3        29.91S
$$

NEZ005>010-023>029-035>040-094-211200-
NORTH CENTRAL NEBRASKA

CITY           SKY/WX    TMP DP  RH WIND       PRES   REMARKS
VALENTINE      CLOUDY    73  65  75 NE12      29.87F
AINSWORTH      CLOUDY    73  73 100 N6        29.87R FOG
BROKEN BOW     CLEAR     70  62  76 SW7       29.84R
O`NEILL        CLOUDY    74  72  93 E6        29.83S
ORD            CLEAR     75  61  61 S7        29.79R
THEDFORD       PTCLDY    72  71  97 W5        29.88R FOG
$$

NEZ041-046>049-061>064-073>077-083>087-211200-
SOUTH CENTRAL NEBRASKA

CITY           SKY/WX    TMP DP  RH WIND       PRES   REMARKS
GRAND ISLAND   CLEAR     78  64  61 S22G32    29.82F
AURORA         CLEAR     76  66  70 S14G21    29.83F
HASTINGS       CLEAR     77  61  57 S10       29.86F
HEBRON         MOCLDY    80  66  63 S10       29.88S
HOLDREGE       CLEAR     73  59  61 S15       29.86S
KEARNEY        CLEAR     75  62  64 S16       29.84F
YORK           PTCLDY    75  66  73 S10       29.84F
$$

NEZ011>018-030>034-042>045-211200-
NORTHEAST NEBRASKA

CITY           SKY/WX    TMP DP  RH WIND       PRES   REMARKS
NORFOLK        CLOUDY    80  65  59 E9        29.81F
ALBION         CLEAR     77  66  67 S8        29.80S
BLAIR          CLOUDY    80  70  72 S9        29.85S
COLUMBUS       CLEAR     79  66  64 S14       29.82F
FREMONT        CLEAR     81  67  62 S12       29.84S
TEKAMAH        PTCLDY    79  69  71 SE8       29.83S
WAYNE          PTCLDY    77  76  98 E9        29.83F
$$

NEZ050>053-065>068-078-088>093-211200-
SOUTHEAST NEBRASKA

CITY           SKY/WX    TMP DP  RH WIND       PRES   REMARKS
LINCOLN        CLEAR     80  68  66 S13       29.84F
OMAHA EPPLEY   CLOUDY    83  70  64 S8        29.84F
BEATRICE       CLEAR     80  69  68 S8        29.88S
FALLS CITY     PTCLDY    79  72  79 S7        29.88S
NEBRASKA CITY  CLEAR     78  74  89 SW9       29.87S
PLATTSMOUTH    MOCLDY    79  70  74 S14       29.86S
$$

NEZ044-045-051>053-067-211200-
OMAHA AREA

CITY           SKY/WX    TMP DP  RH WIND       PRES   REMARKS
OMAHA EPPLEY   CLOUDY    83  70  64 S8        29.84F
BLAIR          CLOUDY    80  70  72 S9        29.85S
FREMONT        CLEAR     81  67  62 S12       29.84S
MILLARD        PTCLDY    81  73  76 CALM      29.85S
OFFUTT AFB     CLEAR     80  71  75 SE8       29.84F
PLATTSMOUTH    MOCLDY    79  70  74 S14       29.86S
WAHOO          FAIR      76  67  75 S3        29.84S
$$




USA.gov is the U.S. government's official web portal to all federal, state and local government web resources and services.